Flag for U.S.A. Weather past 2 weeks in Grand Rapids, Michigan, U.S.A.

Now
50 °F

Fog.


Feels Like: 46 °F
Forecast: 49 / 63 °F
Wind: 9 mph from South

Location: Kent County International Airport

Current Time: Oct 25, 2014 at 3:28:14 AM

Latest Report: Oct 25, 2014 at 2:53 AM


Visibility: 4 mi

Pressure: 29.88 "Hg

Humidity: 89%

Dew point: 47 °F

Location of Grand RapidsLocation

Historic Weather in Grand Rapids — Graph

°F

Grand Rapids temperature yesterday

Maximum temperature yesterday: 61 °F (at 12:53 PM)
Minimum temperature yesterday: 44 °F (at 12:53 AM)
Average temperature yesterday: 52 °F

Past Weeks' High & Low Weather Summary

 TemperatureHumidityPressure
High71 °F (Oct 13, 11:53 PM)100% (Oct 13, 8:53 AM)30.41 "Hg (Oct 13, 8:53 AM)
Low29 °F (Oct 23, 6:53 AM)36% (Oct 11, 4:53 PM)29.51 "Hg (Oct 17, 10:53 AM)
Average50 °F81%29.98 "Hg
* Reported Oct 10 1:53 AM — Oct 25 1:53 AM, Grand Rapids, Weather by CustomWeather, © 2014

Note: Actual official high and low records may vary slightly from our data, if they occured in-between our weather recording intervals... More about our weather records

Advertising

Grand Rapids weather history for previous 24 hours

 ConditionsComfort  
Time TempWeatherWind HumidityBarometerVisibility
1:53 AM
Oct 25
46 °FFog.No wind93%29.91 "Hg3 mi
12:53 AM45 °FFog.No wind93%29.92 "Hg2 mi
11:53 PM
Oct 24
44 °FFog.5 mph96%29.94 "Hg3 mi
10:53 PM45 °FFog.6 mph97%29.96 "Hg3 mi
9:53 PM45 °FFog.5 mph97%29.97 "Hg5 mi
8:53 PM51 °FFog.3 mph86%29.98 "Hg6 mi
7:53 PM54 °FClear.No wind83%29.98 "Hg7 mi
6:53 PM55 °FScattered clouds.6 mph80%29.98 "Hg7 mi
5:53 PM59 °FScattered clouds.7 mph72%29.98 "Hg8 mi
4:53 PM61 °FBroken clouds.10 mph67%29.98 "Hg9 mi
3:53 PM60 °FBroken clouds.10 mph69%29.99 "Hg8 mi
2:53 PM60 °FOvercast.10 mph69%29.99 "Hg10 mi
1:53 PM60 °FPartly sunny.12 mph69%30.01 "Hg8 mi
12:53 PM61 °FScattered clouds.8 mph67%30.03 "Hg9 mi
11:53 AM58 °FBroken clouds.8 mph72%30.06 "Hg8 mi
10:53 AM55 °FOvercast.6 mph74%30.07 "Hg7 mi
9:53 AM52 °FOvercast.8 mph77%30.06 "Hg7 mi
8:53 AM51 °FOvercast.6 mph77%30.06 "Hg8 mi
7:53 AM50 °FMostly cloudy.6 mph77%30.05 "Hg8 mi
6:53 AM47 °FMostly cloudy.3 mph83%30.06 "Hg7 mi
5:53 AM46 °FPassing clouds.No wind83%30.06 "Hg7 mi
4:53 AM47 °FOvercast.No wind83%30.06 "Hg8 mi
3:53 AM46 °FPassing clouds.No wind83%30.06 "Hg8 mi
Weather by CustomWeather, © 2014

See weather overviewHow to use our weather pages